Location: Eastchurch
(51.4000°N, 0.8667°E)
Time: 06:52:56
(UTC+00:00)

SAR-Lupe-4 - Pass Details

Date: 19 January 2026
Orbit: 480 x 483 km, 98.1° (Epoch: 10 January)

Event Time Altitude Azimuth Distance (km) Brightness Sun altitude
Rises 17:07:53 0° 141° (SE) 2,537 7.1 -6.9°
Reaches altitude 10° 17:10:03 10° 132° (SE) 1,662 6.0 -7.2°
Maximum altitude 17:13:17 33° 67° (ENE) 829 4.2 -7.7°
Drops below altitude 10° 17:16:33 10° 2° (N) 1,676 6.1 -8.1°
Sets 17:18:44 0° 353° (N) 2,561 7.1 -8.5°
